Rapid City, SD

9:04 AM MST on January 16, 2017 (GMT -0700)
Rapid City Regional

Weather History for KRAP - January, 2014

Change the Weather History Date:

Friday, January 10, 2014

  Actual Average Record
Temperature  
Mean Temperature 35 °F 25 °F  
Max Temperature 43 °F 37 °F 66 °F (1995)
Min Temperature 26 °F 13 °F -24 °F (1982)
Degree Days  
Heating Degree Days 30 40  
Month to date heating degree days 442 402  
Since 1 July heating degree days 3585 3318  
Cooling Degree Days 0 0  
Month to date cooling degree days 0 0  
Year to date cooling degree days 0 0  
Moisture  
Dew Point 21 °F    
Average Humidity 54    
Maximum Humidity 75    
Minimum Humidity 33    
Precipitation  
Precipitation 0.00 in 0.01 in 0.19 in (1963)
Month to date precipitation 0.07 0.11  
Year to date precipitation 0.07 0.11  
Snow  
Snow 0.00 in 0.20 in 1.60 in (1963)
Month to date snowfall 0.7 1.5  
Since 1 July snowfall 34.1 14.7  
Snow Depth 0.00 in    
Sea Level Pressure  
Sea Level Pressure 29.66 in    
Wind  
Wind Speed 8 mph (NW)    
Max Wind Speed 30 mph    
Max Gust Speed 38 mph    
Visibility 10 miles    
Events      
T = Trace of Precipitation, MM = Missing Value Source: NWS Daily Summary

Daily Weather History Graph

Daily Weather History Graph

Search for Another Location

Airport or City:

Trip Planner

Search our weather history database for the weather conditions in past years. The results will help you decide how hot, cold, wet, or windy it might be!

Date:

Astronomy

Jan. 10, 2014 Rise Set
Actual Time 7:25 AM MST 4:34 PM MST
Civil Twilight 6:53 AM MST 5:06 PM MST
Nautical Twilight 6:17 AM MST 5:42 PM MST
Astronomical Twilight 5:42 AM MST 6:17 PM MST
Moon 12:42 PM MST (1/10) 2:32 AM MST (1/10)
Length of Visible Light 10h 13m
Length of Day
9h 08m
Waxing Gibbous, 75% of the Moon is Illuminated
Jan 10
Waxing Gibbous
Jan 15
Full
Jan 23
Last Quarter
Jan 30
New
Feb 6
First Quarter

Hourly Weather History & Observations

Time (MST) Temp. Windchill Dew Point Humidity Pressure Visibility Wind Dir Wind Speed Gust Speed Precip Events Conditions
12:52 AM 33.1 °F 26.9 °F 23.0 °F 66% 29.62 in 10.0 mi NNW 6.9 mph - N/A   Overcast
1:52 AM 34.0 °F 26.6 °F 23.0 °F 64% 29.62 in 10.0 mi NW 9.2 mph - N/A   Scattered Clouds
2:52 AM 36.0 °F 28.5 °F 24.1 °F 62% 29.63 in 10.0 mi NW 10.4 mph - N/A   Overcast
3:52 AM 32.0 °F 28.7 °F 23.0 °F 69% 29.65 in 10.0 mi NW 3.5 mph - N/A   Clear
4:52 AM 28.9 °F 21.1 °F 21.9 °F 75% 29.67 in 10.0 mi NW 8.1 mph - N/A   Overcast
5:52 AM 33.1 °F 26.1 °F 23.0 °F 66% 29.66 in 10.0 mi NNW 8.1 mph - N/A   Overcast
6:52 AM 30.9 °F 25.2 °F 23.0 °F 72% 29.67 in 10.0 mi NW 5.8 mph - N/A   Overcast
7:52 AM 27.0 °F 20.5 °F 19.9 °F 75% 29.69 in 10.0 mi West 5.8 mph - N/A   Mostly Cloudy
8:52 AM 36.0 °F 30.3 °F 23.0 °F 59% 29.68 in 10.0 mi WNW 6.9 mph - N/A   Clear
9:52 AM 39.0 °F 32.3 °F 19.0 °F 45% 29.68 in 10.0 mi WNW 10.4 mph - N/A   Clear
10:52 AM 42.1 °F 36.1 °F 18.0 °F 38% 29.65 in 10.0 mi NNW 10.4 mph - N/A   Clear
11:52 AM 42.1 °F 36.6 °F 17.1 °F 37% 29.62 in 10.0 mi North 9.2 mph - N/A   Scattered Clouds
12:52 PM 42.1 °F 38.4 °F 16.0 °F 35% 29.60 in 10.0 mi North 5.8 mph - N/A   Clear
1:52 PM 42.1 °F 39.2 °F 16.0 °F 35% 29.60 in 10.0 mi NW 4.6 mph - N/A   Scattered Clouds
2:52 PM 42.1 °F - 17.1 °F 37% 29.61 in 10.0 mi Calm Calm - N/A   Clear
3:52 PM 39.0 °F 36.8 °F 19.9 °F 46% 29.63 in 10.0 mi NW 3.5 mph - N/A   Partly Cloudy
4:52 PM 35.1 °F 28.6 °F 21.0 °F 57% 29.67 in 10.0 mi NNW 8.1 mph - N/A   Mostly Cloudy
5:52 PM 36.0 °F 31.1 °F 21.9 °F 57% 29.66 in 10.0 mi NW 5.8 mph - N/A   Overcast
6:52 PM 34.0 °F 29.8 °F 23.0 °F 64% 29.69 in 10.0 mi NNW 4.6 mph - N/A   Overcast
7:52 PM 35.1 °F 31.0 °F 23.0 °F 61% 29.69 in 10.0 mi West 4.6 mph - N/A   Overcast
8:52 PM 36.0 °F 29.0 °F 23.0 °F 59% 29.70 in 10.0 mi NW 9.2 mph - N/A   Overcast
9:52 PM 36.0 °F 28.5 °F 26.1 °F 67% 29.72 in 10.0 mi NNW 10.4 mph - N/A   Mostly Cloudy
10:52 PM 36.0 °F 26.3 °F 27.0 °F 70% 29.73 in 10.0 mi NW 16.1 mph - N/A   Clear
11:52 PM 37.0 °F 25.1 °F 25.0 °F 62% 29.73 in 10.0 mi NW 26.5 mph 34.5 mph N/A   Clear